This demonstration page uses our WeatherBlox Daily Observations layout. Learn more.

Left ArrowRight Arrow

Hourly Observations for May 22, 2022

Temp ( °F °C ) Dew Point ( °F °C ) Humidity (%) Winds ( mph kmh ) Pressure ( in mb ) Visibility ( mi km ) Precip ( " mm )
12:15 am 00:15 undefined 63 17 61 16.2 95 95 Calm 30.03 1017 10 16 0.00 0.00
12:35 am 00:35 Mostly Clear with Rain 62 16.8 61 16.1 96 96 Calm 30.03 1017 7 11 0.01 0.25
12:55 am 00:55 undefined 62 16.6 61 16 96 96 NW 7 11 30.04 1017 7 11 0.01 0.25
1:15 am 01:15 undefined 62 16.7 60 15.7 94 94 Calm 30.03 1017 10 16 0.00 0.00
1:35 am 01:35 undefined 62 16.6 60 15.7 94 94 Calm 30.03 1017 10 16 0.00 0.00
1:55 am 01:55 Mostly Clear with Mist and Fog 62 16.6 61 15.9 96 96 Calm 30.03 1017 5 8 0.00 0.00
2:15 am 02:15 undefined 62 16.5 61 16 97 97 WNW 3 6 30.04 1017 7 11 0.00 0.00
2:35 am 02:35 undefined 61 16.3 60 15.3 94 94 NNW 6 9 30.03 1017 10 16 0.00 0.00
2:55 am 02:55 undefined 60 15.5 58 14.7 95 95 NNW 13 20 30.03 1017 7 11 0.00 0.00
3:15 am 03:15 undefined 58 14.5 56 13.2 92 92 NW 10 17 30.05 1017 10 16 0.00 0.00
3:35 am 03:35 undefined 57 13.7 54 12.2 91 91 NNW 12 19 30.05 1018 10 16 0.00 0.00
3:55 am 03:55 undefined 56 13.5 53 11.4 87 87 NNW 9 15 30.06 1018 10 16 0.00 0.00
4:15 am 04:15 undefined 56 13.3 52 11.1 87 87 NNW 12 19 30.07 1018 10 16 0.00 0.00
4:35 am 04:35 undefined 55 13 52 11.3 90 90 NNW 8 13 30.09 1019 10 16 0.00 0.00
4:55 am 04:55 undefined 55 12.8 53 11.5 92 92 NNW 9 15 30.11 1020 10 16 0.00 0.00
5:15 am 05:15 Mostly Clear with Mist and Fog 54 12.3 53 11.5 95 95 NNW 7 11 30.12 1020 3 4 0.00 0.00
5:35 am 05:35 Mostly Clear with Mist and Fog 54 12.2 52 11.3 94 94 Calm 30.13 1020 4 6 0.00 0.00
5:55 am 05:55 Mostly Clear with Drizzle 54 12 53 11.5 97 97 Calm 30.14 1021 3 4 0.00 0.00
6:15 am 06:15 Mostly Clear with Mist and Fog 54 12.2 53 11.4 95 95 Calm 30.14 1021 5 8 0.00 0.00
6:35 am 06:35 undefined 54 12.3 53 11.4 94 94 NW 6 9 30.15 1021 7 11 0.00 0.00
6:55 am 06:55 Partly Cloudy with Mist and Fog 55 12.5 53 11.4 93 93 NW 6 9 30.15 1021 5 8 0.00 0.00
7:15 am 07:15 Partly Cloudy with Mist and Fog 55 12.5 53 11.5 94 94 NW 6 9 30.16 1021 5 8 0.00 0.00
7:35 am 07:35 undefined 55 12.5 52 11.3 92 92 NW 7 11 30.17 1022 7 11 0.00 0.00
7:55 am 07:55 Partly Cloudy with Mist and Fog 55 12.6 53 11.5 93 93 NW 8 13 30.18 1022 5 8 0.00 0.00
8:15 am 08:15 Partly Cloudy with Mist and Fog 55 12.7 53 11.6 93 93 WNW 7 11 30.18 1022 5 8 0.00 0.00
8:35 am 08:35 undefined 55 13 53 11.7 92 92 NW 7 11 30.18 1022 7 11 0.00 0.00
8:55 am 08:55 undefined 56 13.3 53 11.7 90 90 WNW 9 15 30.19 1022 7 11 0.00 0.00
9:15 am 09:15 undefined 56 13.3 53 11.7 90 90 NW 10 17 30.19 1022 7 11 0.00 0.00
9:35 am 09:35 undefined 56 13.6 54 12 90 90 NW 6 9 30.20 1023 7 11 0.00 0.00
9:55 am 09:55 undefined 57 13.7 53 11.9 89 89 NW 13 20 30.21 1023 7 11 0.00 0.00
10:15 am 10:15 undefined 57 14 53 11.8 87 87 NNW 9 15 30.21 1023 10 16 0.00 0.00
10:35 am 10:35 undefined 57 14.1 53 11.9 87 87 NNW 12 19 30.22 1023 10 16 0.00 0.00
10:55 am 10:55 undefined 58 14.3 53 11.5 83 83 NNW 13 20 30.23 1024 10 16 0.00 0.00
11:15 am 11:15 undefined 58 14.2 52 11.1 82 82 NNW 10 17 30.23 1024 10 16 0.00 0.00
11:35 am 11:35 undefined 58 14.5 51 10.6 78 78 Calm 30.23 1024 10 16 0.00 0.00
11:55 am 11:55 undefined 58 14.7 51 10.6 77 77 NNW 13 20 30.23 1024 10 16 0.00 0.00
12:15 pm 12:15 undefined 58 14.7 51 10.4 76 76 NW 10 17 30.24 1024 10 16 0.00 0.00
12:35 pm 12:35 undefined 59 14.8 49 9.6 71 71 NNW 10 17 30.25 1025 10 16 0.00 0.00
12:55 pm 12:55 undefined 59 14.9 49 9.4 70 70 NW 9 15 30.26 1025 10 16 0.00 0.00
1:15 pm 13:15 undefined 59 15.1 48 8.8 66 66 NW 8 13 30.26 1025 10 16 0.00 0.00
1:35 pm 13:35 undefined 60 15.7 45 7 56 56 NW 7 11 30.27 1025 10 16 0.00 0.00
1:55 pm 13:55 undefined 62 16.5 45 7.4 55 55 NNW 7 11 30.26 1025 10 16 0.00 0.00
2:15 pm 14:15 undefined 62 16.7 46 7.5 55 55 NW 10 17 30.27 1025 10 16 0.00 0.00
2:35 pm 14:35 undefined 62 16.7 44 6.7 52 52 NNW 8 13 30.28 1025 10 16 0.00 0.00
2:55 pm 14:55 undefined 62 16.9 45 7.3 53 53 NNW 10 17 30.27 1025 10 16 0.00 0.00
3:15 pm 15:15 undefined 63 17 45 7.1 52 52 WNW 8 13 30.27 1025 10 16 0.00 0.00
3:35 pm 15:35 undefined 64 17.5 46 7.5 52 52 N 5 7 30.26 1025 10 16 0.00 0.00
3:55 pm 15:55 undefined 63 17.4 45 7.4 52 52 Calm 30.26 1025 10 16 0.00 0.00
4:15 pm 16:15 undefined 63 17.1 44 6.7 51 51 NNW 13 20 30.27 1025 10 16 0.00 0.00
4:35 pm 16:35 undefined 63 17.3 43 6 48 48 N 9 15 30.28 1025 10 16 0.00 0.00
4:55 pm 16:55 undefined 63 17.2 42 5.3 46 46 NNW 14 22 30.28 1025 10 16 0.00 0.00
5:15 pm 17:15 undefined 63 17 41 5.1 46 46 N 14 22 30.28 1025 10 16 0.00 0.00
5:35 pm 17:35 undefined 62 16.6 41 5 46 46 NNW 10 17 30.29 1026 10 16 0.00 0.00
5:55 pm 17:55 undefined 62 16.7 41 5.1 46 46 NNW 12 19 30.29 1026 10 16 0.00 0.00
6:15 pm 18:15 undefined 62 16.6 39 4.1 44 44 N 9 15 30.29 1026 10 16 0.00 0.00
6:35 pm 18:35 undefined 62 16.7 40 4.3 44 44 NNE 13 20 30.29 1026 10 16 0.00 0.00
6:55 pm 18:55 undefined 61 16 39 3.9 45 45 N 10 17 30.29 1026 10 16 0.00 0.00
7:15 pm 19:15 undefined 60 15.5 38 3.4 45 45 N 10 17 30.29 1026 10 16 0.00 0.00
7:35 pm 19:35 undefined 59 15 38 3.2 45 45 N 7 11 30.29 1026 10 16 0.00 0.00
7:55 pm 19:55 undefined 58 14.4 37 2.7 46 46 N 10 17 30.29 1026 10 16 0.00 0.00
8:15 pm 20:15 undefined 57 14 37 2.7 47 47 Calm 30.30 1026 10 16 0.00 0.00
8:35 pm 20:35 undefined 56 13.6 37 3 49 49 Calm 30.30 1026 10 16 0.00 0.00
8:55 pm 20:55 undefined 56 13.1 38 3.2 51 51 Calm 30.30 1026 10 16 0.00 0.00
9:15 pm 21:15 undefined 55 12.6 39 3.7 55 55 Calm 30.31 1026 10 16 0.00 0.00
9:35 pm 21:35 undefined 54 12 41 4.8 62 62 Calm 30.31 1027 10 16 0.00 0.00
9:55 pm 21:55 undefined 54 12.1 40 4.6 60 60 Calm 30.33 1027 10 16 0.00 0.00
10:15 pm 22:15 undefined 52 11.1 41 4.9 66 66 Calm 30.35 1028 10 16 0.00 0.00
10:35 pm 22:35 undefined 51 10.8 42 5.6 71 71 Calm 30.35 1028 10 16 0.00 0.00
10:55 pm 22:55 undefined 52 10.9 41 5.1 68 68 Calm 30.35 1028 10 16 0.00 0.00
11:15 pm 23:15 undefined 51 10.8 42 5.7 71 71 Calm 30.36 1028 10 16 0.00 0.00
11:35 pm 23:35 undefined 51 10.8 41 5 68 68 Calm 30.36 1028 10 16 0.00 0.00
11:55 pm 23:55 undefined 51 10.8 41 5 68 68 Calm 30.36 1028 10 16 0.00 0.00

Powered by AerisWeather